| time (UTC) | temp C | wind direction | speed KPH | gust KPH | rain 1hr cm | rain 24hr cm | rain mn cm | humidity % | barometer mb |
| 20260505163604 | 12 | 157 | 3.2 | 8.0 | 0.00 | 0.00 | 0.00 | 81 | 1021.2 |
| 20260505162705 | 12 | 157 | 1.6 | 6.4 | 0.00 | 0.00 | 0.00 | 81 | 1021.2 |
| 20260505161825 | 12 | 157 | 1.6 | 6.4 | 0.00 | 0.00 | 0.00 | 81 | 1021.3 |
| 20260505160904 | 12 | 157 | 3.2 | 6.4 | 0.00 | 0.00 | 0.00 | 81 | 1021.4 |
| 20260505152704 | 12 | 157 | 3.2 | 6.4 | 0.00 | 0.00 | 0.00 | 82 | 1021.8 |
| 20260505151804 | 12 | 157 | 1.6 | 4.8 | 0.00 | 0.00 | 0.00 | 82 | 1021.9 |
| 20260505150904 | 12 | 157 | 1.6 | 6.4 | 0.00 | 0.00 | 0.00 | 82 | 1021.9 |
| 20260505124504 | 12 | 157 | 1.6 | 3.2 | 0.00 | 0.00 | 0.00 | 78 | 1022.3 |
| 20260505123604 | 12 | 157 | 0.0 | 4.8 | 0.00 | 0.00 | 0.00 | 78 | 1022.4 |
| 20260505122704 | 13 | 157 | 1.6 | 3.2 | 0.00 | 0.00 | 0.00 | 77 | 1022.4 |
| 20260505121804 | 13 | 157 | 1.6 | 6.4 | 0.00 | 0.00 | 0.00 | 77 | 1022.5 |
| 20260505120904 | 13 | 157 | 1.6 | 6.4 | 0.00 | 0.00 | 0.00 | 77 | 1022.5 |
| 20260505120026 | 13 | 157 | 1.6 | 4.8 | 0.00 | 0.00 | 0.00 | 77 | 1022.6 |
| 20260505115404 | 13 | 157 | 1.6 | 4.8 | 0.00 | 0.00 | 0.00 | 76 | 1022.6 |
| 20260505114505 | 13 | 157 | 1.6 | 6.4 | 0.00 | 0.00 | 0.00 | 76 | 1022.7 |
| 20260505113604 | 13 | 157 | 3.2 | 8.0 | 0.00 | 0.00 | 0.00 | 76 | 1022.7 |
| 20260505112704 | 13 | 157 | 3.2 | 8.0 | 0.00 | 0.00 | 0.00 | 77 | 1022.6 |
| 20260505111804 | 12 | 157 | 3.2 | 8.0 | 0.00 | 0.00 | 0.00 | 77 | 1022.5 |
| 20260505110904 | 12 | 157 | 3.2 | 6.4 | 0.00 | 0.00 | 0.00 | 78 | 1022.5 |
| 20260505101804 | 13 | 157 | 1.6 | 3.2 | 0.00 | 0.00 | 0.00 | 78 | 1022.5 |
| 20260505095405 | 13 | 157 | 1.6 | 6.4 | 0.00 | 0.00 | 0.00 | 78 | 1022.5 |
| 20260505094505 | 12 | 157 | 1.6 | 4.8 | 0.00 | 0.00 | 0.00 | 78 | 1022.5 |
| 20260505093604 | 12 | 157 | 1.6 | 4.8 | 0.00 | 0.00 | 0.00 | 79 | 1022.5 |
| 20260505092705 | 12 | 157 | 0.0 | 3.2 | 0.00 | 0.00 | 0.00 | 79 | 1022.5 |
| 20260505091804 | 13 | 0 | 0.0 | 0.0 | 0.00 | 0.00 | 0.00 | 78 | 1022.5 |
| 20260505090905 | 13 | 0 | 0.0 | 3.2 | 0.00 | 0.00 | 0.00 | 78 | 1022.4 |
| 20260505090025 | 13 | 0 | 0.0 | 3.2 | 0.00 | 0.00 | 0.00 | 78 | 1022.3 |
| 20260505085404 | 13 | 0 | 0.0 | 3.2 | 0.00 | 0.00 | 0.00 | 78 | 1022.3 |
| 20260505084504 | 13 | 157 | 0.0 | 4.8 | 0.00 | 0.00 | 0.00 | 78 | 1022.3 |
| 20260505083604 | 13 | 0 | 0.0 | 3.2 | 0.00 | 0.00 | 0.00 | 77 | 1022.2 |
| 20260505082704 | 13 | 157 | 0.0 | 3.2 | 0.00 | 0.00 | 0.00 | 77 | 1022.1 |
| 20260505081804 | 13 | 157 | 1.6 | 4.8 | 0.00 | 0.00 | 0.00 | 77 | 1022.0 |
| 20260505080926 | 13 | 157 | 1.6 | 4.8 | 0.00 | 0.00 | 0.00 | 76 | 1021.9 |
| 20260505080026 | 13 | 157 | 1.6 | 4.8 | 0.00 | 0.00 | 0.00 | 76 | 1021.8 |
| 20260505075404 | 13 | 157 | 0.0 | 4.8 | 0.00 | 0.00 | 0.00 | 75 | 1021.7 |
| 20260505074504 | 13 | 157 | 0.0 | 4.8 | 0.00 | 0.00 | 0.00 | 75 | 1021.6 |
| 20260505073608 | 13 | 157 | 1.6 | 4.8 | 0.00 | 0.00 | 0.00 | 74 | 1021.6 |
| 20260505072704 | 13 | 157 | 1.6 | 4.8 | 0.00 | 0.00 | 0.00 | 74 | 1021.4 |
| 20260505071804 | 13 | 157 | 0.0 | 6.4 | 0.00 | 0.00 | 0.00 | 73 | 1021.3 |
| 20260505070905 | 13 | 157 | 1.6 | 3.2 | 0.00 | 0.00 | 0.00 | 73 | 1021.3 |
| 20260505070004 | 13 | 157 | 1.6 | 6.4 | 0.00 | 0.00 | 0.00 | 72 | 1021.2 |
| 20260505065405 | 13 | 157 | 1.6 | 6.4 | 0.00 | 0.00 | 0.00 | 72 | 1021.2 |
| 20260505064536 | 13 | 157 | 1.6 | 4.8 | 0.00 | 0.00 | 0.00 | 74 | 1021.2 |
| 20260505063605 | 13 | 157 | 1.6 | 6.4 | 0.00 | 0.00 | 0.00 | 74 | 1021.1 |
| 20260505062705 | 13 | 157 | 1.6 | 6.4 | 0.00 | 0.00 | 0.00 | 75 | 1021.0 |
| 20260505061804 | 13 | 157 | 1.6 | 6.4 | 0.00 | 0.00 | 0.00 | 75 | 1021.0 |
| 20260505060904 | 13 | 0 | 0.0 | 4.8 | 0.00 | 0.00 | 0.00 | 75 | 1020.9 |
| 20260505060005 | 13 | 0 | 0.0 | 3.2 | 0.00 | 0.00 | 0.00 | 75 | 1020.9 |
| 20260505055404 | 13 | 0 | 0.0 | 3.2 | 0.00 | 0.00 | 0.00 | 75 | 1020.9 |
| 20260505054525 | 13 | 157 | 1.6 | 3.2 | 0.00 | 0.00 | 0.00 | 75 | 1020.8 |
| 20260505053604 | 13 | 157 | 1.6 | 4.8 | 0.00 | 0.00 | 0.00 | 74 | 1020.7 |
| 20260505052704 | 13 | 157 | 1.6 | 8.0 | 0.00 | 0.00 | 0.00 | 74 | 1020.7 |
| 20260505051804 | 13 | 157 | 1.6 | 8.0 | 0.00 | 0.00 | 0.00 | 74 | 1020.5 |
| 20260505050904 | 13 | 157 | 1.6 | 6.4 | 0.00 | 0.00 | 0.00 | 74 | 1020.4 |
| 20260505040904 | 14 | 157 | 4.8 | 9.7 | 0.00 | 0.00 | 0.00 | 72 | 1020.1 |
| 20260505040005 | 14 | 157 | 3.2 | 12.9 | 0.00 | 0.00 | 0.00 | 73 | 1020.0 |
| 20260505035404 | 13 | 157 | 4.8 | 9.7 | 0.00 | 0.00 | 0.00 | 73 | 1019.9 |
| 20260505034504 | 13 | 157 | 6.4 | 17.7 | 0.00 | 0.00 | 0.00 | 73 | 1020.0 |
| 20260505033604 | 13 | 157 | 4.8 | 17.7 | 0.00 | 0.00 | 0.00 | 74 | 1020.0 |
| 20260505032704 | 13 | 157 | 4.8 | 14.5 | 0.00 | 0.00 | 0.00 | 74 | 1019.9 |
| 20260505031825 | 13 | 157 | 4.8 | 9.7 | 0.00 | 0.00 | 0.00 | 75 | 1019.9 |
| 20260505030925 | 13 | 157 | 4.8 | 16.1 | 0.00 | 0.00 | 0.00 | 75 | 1020.0 |
| 20260505030004 | 13 | 157 | 4.8 | 14.5 | 0.00 | 0.00 | 0.00 | 74 | 1019.9 |
| 20260505025404 | 13 | 157 | 4.8 | 14.5 | 0.00 | 0.00 | 0.00 | 74 | 1019.9 |
| 20260505024504 | 14 | 157 | 4.8 | 16.1 | 0.00 | 0.00 | 0.00 | 74 | 1020.0 |
| 20260505023604 | 14 | 157 | 6.4 | 17.7 | 0.00 | 0.00 | 0.00 | 73 | 1019.9 |
| 20260505022704 | 14 | 157 | 6.4 | 16.1 | 0.00 | 0.00 | 0.00 | 73 | 1019.9 |
| 20260505021825 | 13 | 157 | 6.4 | 25.7 | 0.00 | 0.00 | 0.00 | 75 | 1019.9 |
| 20260505020904 | 13 | 157 | 8.0 | 19.3 | 0.00 | 0.00 | 0.00 | 76 | 1020.0 |
| 20260505020004 | 13 | 157 | 8.0 | 19.3 | 0.00 | 0.00 | 0.00 | 76 | 1020.1 |
| 20260505015404 | 13 | 157 | 8.0 | 25.7 | 0.00 | 0.00 | 0.00 | 77 | 1020.2 |
| 20260505014504 | 13 | 157 | 6.4 | 16.1 | 0.00 | 0.00 | 0.00 | 78 | 1020.2 |
| 20260505013604 | 13 | 157 | 6.4 | 19.3 | 0.00 | 0.00 | 0.00 | 80 | 1020.2 |
| 20260505012725 | 13 | 157 | 6.4 | 16.1 | 0.00 | 0.00 | 0.00 | 81 | 1020.3 |
| 20260505011804 | 13 | 157 | 4.8 | 19.3 | 0.00 | 0.00 | 0.00 | 81 | 1020.3 |
| 20260505010904 | 13 | 157 | 4.8 | 16.1 | 0.00 | 0.00 | 0.00 | 82 | 1020.3 |
| 20260505010004 | 13 | 157 | 6.4 | 14.5 | 0.00 | 0.00 | 0.00 | 82 | 1020.2 |
| 20260505005404 | 13 | 157 | 8.0 | 20.9 | 0.00 | 0.00 | 0.00 | 81 | 1020.2 |
| 20260505004504 | 13 | 157 | 8.0 | 24.1 | 0.00 | 0.00 | 0.00 | 81 | 1020.1 |
| 20260505003604 | 13 | 157 | 6.4 | 17.7 | 0.00 | 0.00 | 0.00 | 81 | 1019.9 |
| 20260505002704 | 13 | 157 | 6.4 | 17.7 | 0.00 | 0.00 | 0.00 | 82 | 1019.8 |
| 20260505001804 | 12 | 157 | 6.4 | 19.3 | 0.00 | 0.00 | 0.00 | 83 | 1019.7 |
| 20260505000904 | 12 | 157 | 6.4 | 19.3 | 0.00 | 0.00 | 0.00 | 83 | 1019.6 |
| 20260505000005 | 12 | 157 | 4.8 | 20.9 | 0.00 | 0.00 | 0.00 | 83 | 1019.6 |
| 20260504235404 | 12 | 157 | 6.4 | 22.5 | 0.00 | 0.00 | 0.00 | 83 | 1019.5 |
| 20260504234504 | 12 | 157 | 4.8 | 17.7 | 0.00 | 0.00 | 0.00 | 83 | 1019.4 |
| 20260504233604 | 12 | 157 | 6.4 | 12.9 | 0.00 | 0.00 | 0.00 | 84 | 1019.4 |
| 20260504232704 | 12 | 157 | 6.4 | 19.3 | 0.00 | 0.00 | 0.00 | 85 | 1019.4 |
| 20260504231804 | 12 | 157 | 4.8 | 19.3 | 0.00 | 0.00 | 0.00 | 86 | 1019.4 |
| 20260504230904 | 12 | 157 | 3.2 | 12.9 | 0.00 | 0.00 | 0.00 | 88 | 1019.2 |
| 20260504230005 | 12 | 157 | 4.8 | 9.7 | 0.00 | 0.00 | 0.00 | 89 | 1019.1 |
| 20260504225404 | 12 | 157 | 6.4 | 17.7 | 0.00 | 0.00 | 0.00 | 89 | 1019.1 |
| 20260504224504 | 12 | 157 | 6.4 | 17.7 | 0.00 | 0.00 | 0.00 | 90 | 1019.1 |
| 20260504223604 | 12 | 157 | 4.8 | 17.7 | 0.00 | 0.00 | 0.00 | 90 | 1019.0 |
| 20260504222725 | 12 | 157 | 4.8 | 16.1 | 0.00 | 0.00 | 0.00 | 91 | 1018.8 |
| 20260504221804 | 11 | 157 | 4.8 | 16.1 | 0.00 | 0.00 | 0.00 | 91 | 1018.5 |
| 20260504220904 | 11 | 157 | 4.8 | 16.1 | 0.00 | 0.00 | 0.00 | 91 | 1018.4 |
| 20260504220004 | 11 | 157 | 4.8 | 16.1 | 0.00 | 0.00 | 0.00 | 91 | 1018.3 |
| 20260504215404 | 11 | 157 | 4.8 | 16.1 | 0.00 | 0.00 | 0.00 | 91 | 1018.2 |
| 20260504214504 | 11 | 157 | 4.8 | 17.7 | 0.00 | 0.00 | 0.00 | 91 | 1017.9 |
| 20260504213604 | 11 | 157 | 3.2 | 14.5 | 0.00 | 0.00 | 0.00 | 91 | 1017.7 |
| 20260504212725 | 11 | 157 | 3.2 | 8.0 | 0.00 | 0.00 | 0.00 | 91 | 1017.6 |
| 20260504211804 | 11 | 157 | 4.8 | 12.9 | 0.00 | 0.00 | 0.00 | 90 | 1017.4 |
| 20260504210904 | 12 | 157 | 4.8 | 14.5 | 0.00 | 0.00 | 0.00 | 90 | 1017.3 |
| 20260504210004 | 12 | 157 | 4.8 | 17.7 | 0.00 | 0.00 | 0.00 | 90 | 1017.2 |
| 20260504205406 | 12 | 157 | 4.8 | 17.7 | 0.00 | 0.00 | 0.00 | 89 | 1017.2 |
| 20260504204504 | 12 | 157 | 6.4 | 14.5 | 0.00 | 0.00 | 0.00 | 89 | 1017.1 |
| 20260504203604 | 12 | 157 | 6.4 | 20.9 | 0.00 | 0.00 | 0.00 | 88 | 1016.9 |
| 20260504202704 | 12 | 157 | 6.4 | 17.7 | 0.00 | 0.00 | 0.00 | 87 | 1016.7 |
| 20260504201804 | 12 | 157 | 6.4 | 17.7 | 0.00 | 0.00 | 0.00 | 87 | 1016.5 |
| 20260504200925 | 12 | 157 | 6.4 | 17.7 | 0.00 | 0.00 | 0.00 | 87 | 1016.3 |
| 20260504200004 | 12 | 157 | 6.4 | 16.1 | 0.00 | 0.00 | 0.00 | 86 | 1016.2 |
| 20260504195404 | 12 | 157 | 6.4 | 17.7 | 0.00 | 0.00 | 0.00 | 86 | 1016.2 |
| 20260504194504 | 12 | 157 | 6.4 | 22.5 | 0.00 | 0.00 | 0.00 | 86 | 1016.1 |
| 20260504193604 | 12 | 157 | 6.4 | 14.5 | 0.00 | 0.00 | 0.00 | 85 | 1016.1 |
| 20260504192704 | 12 | 157 | 8.0 | 19.3 | 0.00 | 0.00 | 0.00 | 85 | 1016.0 |
| 20260504191825 | 12 | 157 | 8.0 | 24.1 | 0.00 | 0.00 | 0.00 | 85 | 1015.9 |
| 20260504190904 | 12 | 157 | 6.4 | 17.7 | 0.00 | 0.00 | 0.00 | 85 | 1015.8 |
| 20260504190004 | 12 | 157 | 4.8 | 14.5 | 0.00 | 0.00 | 0.00 | 85 | 1015.7 |
| 20260504185404 | 12 | 157 | 4.8 | 12.9 | 0.00 | 0.00 | 0.00 | 85 | 1015.6 |
| 20260504184504 | 12 | 157 | 6.4 | 16.1 | 0.00 | 0.00 | 0.00 | 85 | 1015.6 |
| 20260504183604 | 12 | 157 | 8.0 | 22.5 | 0.00 | 0.00 | 0.00 | 85 | 1015.4 |
| 20260504182704 | 12 | 157 | 8.0 | 20.9 | 0.00 | 0.00 | 0.00 | 84 | 1015.2 |
| 20260504181804 | 12 | 157 | 6.4 | 19.3 | 0.00 | 0.00 | 0.00 | 84 | 1015.2 |
| 20260504180904 | 12 | 157 | 6.4 | 19.3 | 0.00 | 0.00 | 0.00 | 84 | 1015.1 |
| 20260504180004 | 12 | 157 | 8.0 | 20.9 | 0.00 | 0.00 | 0.00 | 83 | 1014.9 |
| 20260504175425 | 12 | 157 | 8.0 | 24.1 | 0.00 | 0.00 | 0.00 | 83 | 1014.9 |
| 20260504174504 | 12 | 157 | 6.4 | 16.1 | 0.00 | 0.00 | 0.00 | 82 | 1014.8 |
| 20260504173604 | 12 | 157 | 8.0 | 19.3 | 0.00 | 0.00 | 0.00 | 82 | 1014.9 |
| 20260504172704 | 12 | 157 | 8.0 | 14.5 | 0.00 | 0.00 | 0.00 | 82 | 1014.8 |
| 20260504171804 | 12 | 157 | 8.0 | 25.7 | 0.00 | 0.00 | 0.00 | 81 | 1014.6 |
| 20260504170904 | 12 | 157 | 8.0 | 25.7 | 0.00 | 0.00 | 0.00 | 81 | 1014.5 |